Location: Newark
(7.1028°S, 35.3258°W)
Time: 11:34:37
(UTC+00:00)

Hubble Space Telescope - Pass Details

Date: 22 January 2020
Orbit: 536 x 540 km, 28.5° (Epoch: 23 February)

Event Time Altitude Azimuth Distance (km) Brightness Sun altitude
Exits shadow 06:46:17 20° 210° (SSW) 1,253 2.5 -22.1°
Maximum altitude 06:48:36 39° 153° (SSE) 814 2.0 -21.6°
Drops below altitude 10° 06:52:28 10° 83° (E) 1,779 4.2 -20.7°
Sets 06:54:50 0° 75° (ENE) 2,667 5.1 -20.2°
